Home   Weather   Bari   Past weeks

Flag for Italy Past Weather in Bari, Italy — Yesterday and Last 2 Weeks

Now
41 °F

Fog.


Feels Like: 36 °F
Forecast: 41 / 52 °F
Wind: 8 mph from North

Location: Gioia Del Colle Airport

Current Time: Jan 20, 2017 at 11:29:26 pm

Latest Report: Jan 20, 2017 at 9:55 pm


Visibility: 2 mi

Pressure: 30.36 "Hg

Humidity: 100%

Dew Point: 41 °F

Location of BariLocation

Past Weather in Bari — Graph

°F

Bari Temperature Yesterday

Maximum temperature yesterday: 45 °F (at 1:55 pm)
Minimum temperature yesterday: 37 °F (at 2:55 am)
Average temperature yesterday: 40 °F

High & Low Weather Summary for the Past Weeks

 TemperatureHumidityPressure
High45 °F (Jan 13, 3:55 pm)100% (Jan 6, 3:55 am)30.36 "Hg (Jan 6, 3:55 am)
Low16 °F (Jan 12, 6:55 am)36% (Jan 14, 12:55 pm)29.56 "Hg (Jan 16, 3:55 pm)
Average33 °F84%29.90 "Hg
* Reported Jan 5 9:55 pm — Jan 20 9:55 pm, Bari, Weather by CustomWeather, © 2017

Note: Actual official high and low records may vary slightly from our data, if they occured in-between our weather recording intervals... More about our weather records

Advertising

Bari Weather History for the Previous 24 Hours

Scroll right to see more
 ConditionsComfort  
Time TempWeatherWind HumidityBarometerVisibility
9:55 pm
Fri, Jan 20
41 °FFog.8 mph100%30.36 "Hg2 mi
8:55 pm39 °FFog.5 mph100%30.33 "Hg1 mi
7:55 pm41 °FFog.6 mph100%30.33 "Hg2 mi
6:55 pm41 °FDrizzle. Fog.6 mph100%30.33 "Hg2 mi
5:55 pm41 °FDrizzle. Fog.7 mph100%30.33 "Hg2 mi
4:55 pm41 °FDrizzle. Fog.8 mph100%30.33 "Hg2 mi
3:55 pm43 °FDrizzle. Fog.8 mph93%30.30 "Hg3 mi
2:55 pm43 °FPartly sunny.7 mph93%30.30 "Hg4 mi
1:55 pm45 °FPartly sunny.9 mph87%30.30 "Hg4 mi
12:55 pm43 °FPartly sunny.9 mph93%30.33 "Hg4 mi
11:55 am43 °FPartly sunny.8 mph93%30.33 "Hg4 mi
10:55 am43 °FBroken clouds.7 mph93%30.33 "Hg4 mi
9:55 am41 °FLight rain. Broken clouds.6 mph100%30.33 "Hg4 mi
8:55 am41 °FBroken clouds.5 mph93%30.30 "Hg4 mi
7:55 am39 °FBroken clouds.5 mph100%30.30 "Hg4 mi
6:55 am39 °FPartly cloudy.5 mph100%30.27 "Hg4 mi
5:55 am39 °FPassing clouds.5 mph100%30.27 "HgN/A
4:55 am39 °FPassing clouds.5 mph93%30.27 "HgN/A
3:55 am39 °FPassing clouds.6 mph93%30.27 "HgN/A
2:55 am37 °FPassing clouds.5 mph93%30.24 "HgN/A
1:55 am37 °FPassing clouds.5 mph93%30.24 "HgN/A
12:55 am39 °FPassing clouds.6 mph81%30.24 "HgN/A
11:55 pm
Thu, Jan 19
37 °FPassing clouds.5 mph87%30.24 "HgN/A
Weather by CustomWeather, © 2017

See weather overviewHow to use our weather pages